User: anonymous   Login
Location: Augirein
(42.9320°N, 0.9181°E)
Time: 06:15:29
(UTC+00:00)
Language:

Cosmos 1842 Rocket - Orbit

View from above orbital plane
View from above orbital plane
View from above satellite
View from above satellite

Ground track
Ground track

The orbit data is extracted from the following two-line orbital elements,

1 17912U 87038B   21260.70415341  .00000106  00000-0  10019-4 0  9994
2 17912  82.5036  32.5792 0020963 150.6846 209.5549 14.83095214857971
Epoch (UTC): 17 September 2021 16:53:58
Eccentricity: 0.0020963
inclination: 82.5036°
perigee height: 605 km
apogee height: 634 km
right ascension of ascending node: 32.5792°
argument of perigee: 150.6846°
revolutions per day: 14.83095214
mean anomaly at epoch: 209.5549°
orbit number at epoch: 85797

The dashed part of the orbit path shows where the satellite is in the earth's shadow,  

DLR